owner,sensor,date,latitude,longitude,sea_surface_height_above_sea_level,qcFlag 
COMPS,ioos:station:USF.COMPS:FHP:1,2016-01-01T00:00:00Z,28.1530,-82.8010,0.214,1111122 
COMPS,ioos:station:USF.COMPS:FHP:1,2016-01-01T00:06:00Z,28.1530,-82.8010,0.19,1111122 
COMPS,ioos:station:USF.COMPS:FHP:1,2016-01-01T00:12:00Z,28.1530,-82.8010,0.192,1111122 
COMPS,ioos:station:USF.COMPS:FHP:1,2016-01-01T00:18:00Z,28.1530,-82.8010,0.175,1111122 
COMPS,ioos:station:USF.COMPS:FHP:1,2016-01-01T00:24:00Z,28.1530,-82.8010,0.166,1111122 
COMPS,ioos:station:USF.COMPS:FHP:1,2016-01-01T00:30:00Z,28.1530,-82.8010,0.15,1111122 
COMPS,ioos:station:USF.COMPS:FHP:1,2016-01-01T00:36:00Z,28.1530,-82.8010,0.136,1111122 
COMPS,ioos:station:USF.COMPS:FHP:1,2016-01-01T00:42:00Z,28.1530,-82.8010,0.126,1111122 
COMPS,ioos:station:USF.COMPS:FHP:1,2016-01-01T00:48:00Z,28.1530,-82.8010,0.117,1111122 
COMPS,ioos:station:USF.COMPS:FHP:1,2016-01-01T00:54:00Z,28.1530,-82.8010,0.105,1111122 
COMPS,ioos:station:USF.COMPS:FHP:1,2016-01-01T01:00:00Z,28.1530,-82.8010,0.091,1111122 
COMPS,ioos:station:USF.COMPS:FHP:1,2016-01-01T01:12:00Z,28.1530,-82.8010,0.071,1111122 
COMPS,ioos:station:USF.COMPS:FHP:1,2016-01-01T01:18:00Z,28.1530,-82.8010,0.066,1111122 
COMPS,ioos:station:USF.COMPS:FHP:1,2016-01-01T01:24:00Z,28.1530,-82.8010,0.059,1111122 
COMPS,ioos:station:USF.COMPS:FHP:1,2016-01-01T01:30:00Z,28.1530,-82.8010,0.048,1111122 
COMPS,ioos:station:USF.COMPS:FHP:1,2016-01-01T01:42:00Z,28.1530,-82.8010,0.04,1111122 
COMPS,ioos:station:USF.COMPS:FHP:1,2016-01-01T01:54:00Z,28.1530,-82.8010,0.036,1111122 
COMPS,ioos:station:USF.COMPS:FHP:1,2016-01-01T02:00:00Z,28.1530,-82.8010,0.031,1111122 
COMPS,ioos:station:USF.COMPS:FHP:1,2016-01-01T02:06:00Z,28.1530,-82.8010,0.031,1111122 
COMPS,ioos:station:USF.COMPS:FHP:1,2016-01-01T02:12:00Z,28.1530,-82.8010,0.024,1111122 
COMPS,ioos:station:USF.COMPS:FHP:1,2016-01-01T02:18:00Z,28.1530,-82.8010,0.024,1111122 
COMPS,ioos:station:USF.COMPS:FHP:1,2016-01-01T02:30:00Z,28.1530,-82.8010,0.017,1111122 
COMPS,ioos:station:USF.COMPS:FHP:1,2016-01-01T02:36:00Z,28.1530,-82.8010,0.024,1111122 
COMPS,ioos:station:USF.COMPS:FHP:1,2016-01-01T02:42:00Z,28.1530,-82.8010,0.024,1111122 
COMPS,ioos:station:USF.COMPS:FHP:1,2016-01-01T02:48:00Z,28.1530,-82.8010,0.024,1111122 
COMPS,ioos:station:USF.COMPS:FHP:1,2016-01-01T02:54:00Z,28.1530,-82.8010,0.03,1111122 
COMPS,ioos:station:USF.COMPS:FHP:1,2016-01-01T03:00:00Z,28.1530,-82.8010,0.027,1111122 
COMPS,ioos:station:USF.COMPS:FHP:1,2016-01-01T03:06:00Z,28.1530,-82.8010,0.028,1111122 
COMPS,ioos:station:USF.COMPS:FHP:1,2016-01-01T03:12:00Z,28.1530,-82.8010,0.029,1111122 
COMPS,ioos:station:USF.COMPS:FHP:1,2016-01-01T03:18:00Z,28.1530,-82.8010,0.031,1111122 
COMPS,ioos:station:USF.COMPS:FHP:1,2016-01-01T03:24:00Z,28.1530,-82.8010,0.03,1111122 
COMPS,ioos:station:USF.COMPS:FHP:1,2016-01-01T03:30:00Z,28.1530,-82.8010,0.029,1111122 
COMPS,ioos:station:USF.COMPS:FHP:1,2016-01-01T03:42:00Z,28.1530,-82.8010,0.039,1111122 
COMPS,ioos:station:USF.COMPS:FHP:1,2016-01-01T03:48:00Z,28.1530,-82.8010,0.044,1111122 
COMPS,ioos:station:USF.COMPS:FHP:1,2016-01-01T03:54:00Z,28.1530,-82.8010,0.048,1111122 
COMPS,ioos:station:USF.COMPS:FHP:1,2016-01-01T04:06:00Z,28.1530,-82.8010,0.058,1111122 
COMPS,ioos:station:USF.COMPS:FHP:1,2016-01-01T04:12:00Z,28.1530,-82.8010,0.061,1111122 
COMPS,ioos:station:USF.COMPS:FHP:1,2016-01-01T04:18:00Z,28.1530,-82.8010,0.065,1111122 
COMPS,ioos:station:USF.COMPS:FHP:1,2016-01-01T04:24:00Z,28.1530,-82.8010,0.07,1111122 
COMPS,ioos:station:USF.COMPS:FHP:1,2016-01-01T04:42:00Z,28.1530,-82.8010,0.084,1111122 
COMPS,ioos:station:USF.COMPS:FHP:1,2016-01-01T04:48:00Z,28.1530,-82.8010,0.095,1111122 
COMPS,ioos:station:USF.COMPS:FHP:1,2016-01-01T04:54:00Z,28.1530,-82.8010,0.097,1111122 
COMPS,ioos:station:USF.COMPS:FHP:1,2016-01-01T05:00:00Z,28.1530,-82.8010,0.113,1111122 
COMPS,ioos:station:USF.COMPS:FHP:1,2016-01-01T05:06:00Z,28.1530,-82.8010,0.12,1111122 
COMPS,ioos:station:USF.COMPS:FHP:1,2016-01-01T05:12:00Z,28.1530,-82.8010,0.123,1111122 
COMPS,ioos:station:USF.COMPS:FHP:1,2016-01-01T05:24:00Z,28.1530,-82.8010,0.138,1111122 
COMPS,ioos:station:USF.COMPS:FHP:1,2016-01-01T05:30:00Z,28.1530,-82.8010,0.143,1111122 
COMPS,ioos:station:USF.COMPS:FHP:1,2016-01-01T05:36:00Z,28.1530,-82.8010,0.153,1111122 
COMPS,ioos:station:USF.COMPS:FHP:1,2016-01-01T05:42:00Z,28.1530,-82.8010,0.161,1111122 
COMPS,ioos:station:USF.COMPS:FHP:1,2016-01-01T05:54:00Z,28.1530,-82.8010,0.18,1111122 
COMPS,ioos:station:USF.COMPS:FHP:1,2016-01-01T06:00:00Z,28.1530,-82.8010,0.187,1111122 
COMPS,ioos:station:USF.COMPS:FHP:1,2016-01-01T06:06:00Z,28.1530,-82.8010,0.19,1111122 
COMPS,ioos:station:USF.COMPS:FHP:1,2016-01-01T06:12:00Z,28.1530,-82.8010,0.198,1111122 
COMPS,ioos:station:USF.COMPS:FHP:1,2016-01-01T06:18:00Z,28.1530,-82.8010,0.2,1111122 
COMPS,ioos:station:USF.COMPS:FHP:1,2016-01-01T06:24:00Z,28.1530,-82.8010,0.208,1111122 
COMPS,ioos:station:USF.COMPS:FHP:1,2016-01-01T06:30:00Z,28.1530,-82.8010,0.213,1111122 
COMPS,ioos:station:USF.COMPS:FHP:1,2016-01-01T06:36:00Z,28.1530,-82.8010,0.217,1111122 
COMPS,ioos:station:USF.COMPS:FHP:1,2016-01-01T06:42:00Z,28.1530,-82.8010,0.224,1111122 
COMPS,ioos:station:USF.COMPS:FHP:1,2016-01-01T06:48:00Z,28.1530,-82.8010,0.223,1111122 
COMPS,ioos:station:USF.COMPS:FHP:1,2016-01-01T06:54:00Z,28.1530,-82.8010,0.24,1111122 
COMPS,ioos:station:USF.COMPS:FHP:1,2016-01-01T07:00:00Z,28.1530,-82.8010,0.234,1111122 
COMPS,ioos:station:USF.COMPS:FHP:1,2016-01-01T07:06:00Z,28.1530,-82.8010,0.255,1111122 
COMPS,ioos:station:USF.COMPS:FHP:1,2016-01-01T07:12:00Z,28.1530,-82.8010,0.256,1111122 
COMPS,ioos:station:USF.COMPS:FHP:1,2016-01-01T07:18:00Z,28.1530,-82.8010,0.252,1111122 
COMPS,ioos:station:USF.COMPS:FHP:1,2016-01-01T07:24:00Z,28.1530,-82.8010,0.272,1111122 
COMPS,ioos:station:USF.COMPS:FHP:1,2016-01-01T07:30:00Z,28.1530,-82.8010,0.263,1111122 
COMPS,ioos:station:USF.COMPS:FHP:1,2016-01-01T07:36:00Z,28.1530,-82.8010,0.273,1111122 
COMPS,ioos:station:USF.COMPS:FHP:1,2016-01-01T07:42:00Z,28.1530,-82.8010,0.272,1111122 
COMPS,ioos:station:USF.COMPS:FHP:1,2016-01-01T07:48:00Z,28.1530,-82.8010,0.276,1111122 
COMPS,ioos:station:USF.COMPS:FHP:1,2016-01-01T07:54:00Z,28.1530,-82.8010,0.289,1111122 
COMPS,ioos:station:USF.COMPS:FHP:1,2016-01-01T08:00:00Z,28.1530,-82.8010,0.292,1111122 
COMPS,ioos:station:USF.COMPS:FHP:1,2016-01-01T08:06:00Z,28.1530,-82.8010,0.293,1111122 
COMPS,ioos:station:USF.COMPS:FHP:1,2016-01-01T08:12:00Z,28.1530,-82.8010,0.304,1111122 
COMPS,ioos:station:USF.COMPS:FHP:1,2016-01-01T08:18:00Z,28.1530,-82.8010,0.304,1111122 
COMPS,ioos:station:USF.COMPS:FHP:1,2016-01-01T08:36:00Z,28.1530,-82.8010,0.309,1111122 
COMPS,ioos:station:USF.COMPS:FHP:1,2016-01-01T08:48:00Z,28.1530,-82.8010,0.302,1111122 
COMPS,ioos:station:USF.COMPS:FHP:1,2016-01-01T08:54:00Z,28.1530,-82.8010,0.302,1111122 
COMPS,ioos:station:USF.COMPS:FHP:1,2016-01-01T09:00:00Z,28.1530,-82.8010,0.291,1111122 
COMPS,ioos:station:USF.COMPS:FHP:1,2016-01-01T09:06:00Z,28.1530,-82.8010,0.285,1111122 
COMPS,ioos:station:USF.COMPS:FHP:1,2016-01-01T09:12:00Z,28.1530,-82.8010,0.273,1111122 
COMPS,ioos:station:USF.COMPS:FHP:1,2016-01-01T09:18:00Z,28.1530,-82.8010,0.272,1111122 
COMPS,ioos:station:USF.COMPS:FHP:1,2016-01-01T09:24:00Z,28.1530,-82.8010,0.273,1111122 
COMPS,ioos:station:USF.COMPS:FHP:1,2016-01-01T09:30:00Z,28.1530,-82.8010,0.266,1111122 
COMPS,ioos:station:USF.COMPS:FHP:1,2016-01-01T09:36:00Z,28.1530,-82.8010,0.265,1111122 
COMPS,ioos:station:USF.COMPS:FHP:1,2016-01-01T09:42:00Z,28.1530,-82.8010,0.267,1111122 
COMPS,ioos:station:USF.COMPS:FHP:1,2016-01-01T09:48:00Z,28.1530,-82.8010,0.248,1111122 
COMPS,ioos:station:USF.COMPS:FHP:1,2016-01-01T09:54:00Z,28.1530,-82.8010,0.25,1111122 
COMPS,ioos:station:USF.COMPS:FHP:1,2016-01-01T10:00:00Z,28.1530,-82.8010,0.245,1111122 
COMPS,ioos:station:USF.COMPS:FHP:1,2016-01-01T10:06:00Z,28.1530,-82.8010,0.231,1111122 
COMPS,ioos:station:USF.COMPS:FHP:1,2016-01-01T10:12:00Z,28.1530,-82.8010,0.221,1111122 
COMPS,ioos:station:USF.COMPS:FHP:1,2016-01-01T10:18:00Z,28.1530,-82.8010,0.217,1111122 
COMPS,ioos:station:USF.COMPS:FHP:1,2016-01-01T10:24:00Z,28.1530,-82.8010,0.204,1111122 
COMPS,ioos:station:USF.COMPS:FHP:1,2016-01-01T10:30:00Z,28.1530,-82.8010,0.203,1111122 
COMPS,ioos:station:USF.COMPS:FHP:1,2016-01-01T10:36:00Z,28.1530,-82.8010,0.193,1111122 
COMPS,ioos:station:USF.COMPS:FHP:1,2016-01-01T10:42:00Z,28.1530,-82.8010,0.182,1111122 
COMPS,ioos:station:USF.COMPS:FHP:1,2016-01-01T10:48:00Z,28.1530,-82.8010,0.174,1111122 
COMPS,ioos:station:USF.COMPS:FHP:1,2016-01-01T10:54:00Z,28.1530,-82.8010,0.16,1111122 
COMPS,ioos:station:USF.COMPS:FHP:1,2016-01-01T11:00:00Z,28.1530,-82.8010,0.153,1111122 
COMPS,ioos:station:USF.COMPS:FHP:1,2016-01-01T11:06:00Z,28.1530,-82.8010,0.146,1111122 
COMPS,ioos:station:USF.COMPS:FHP:1,2016-01-01T11:12:00Z,28.1530,-82.8010,0.139,1111122 
COMPS,ioos:station:USF.COMPS:FHP:1,2016-01-01T11:18:00Z,28.1530,-82.8010,0.129,1111122 
COMPS,ioos:station:USF.COMPS:FHP:1,2016-01-01T11:24:00Z,28.1530,-82.8010,0.126,1111122 
COMPS,ioos:station:USF.COMPS:FHP:1,2016-01-01T11:30:00Z,28.1530,-82.8010,0.117,1111122 
COMPS,ioos:station:USF.COMPS:FHP:1,2016-01-01T11:36:00Z,28.1530,-82.8010,0.112,1111122 
COMPS,ioos:station:USF.COMPS:FHP:1,2016-01-01T11:42:00Z,28.1530,-82.8010,0.112,1111122 
COMPS,ioos:station:USF.COMPS:FHP:1,2016-01-01T11:48:00Z,28.1530,-82.8010,0.105,1111122 
COMPS,ioos:station:USF.COMPS:FHP:1,2016-01-01T12:00:00Z,28.1530,-82.8010,0.095,1111122 
COMPS,ioos:station:USF.COMPS:FHP:1,2016-01-01T12:06:00Z,28.1530,-82.8010,0.085,1111122 
COMPS,ioos:station:USF.COMPS:FHP:1,2016-01-01T12:12:00Z,28.1530,-82.8010,0.078,1111122 
COMPS,ioos:station:USF.COMPS:FHP:1,2016-01-01T12:24:00Z,28.1530,-82.8010,0.056,1111122 
COMPS,ioos:station:USF.COMPS:FHP:1,2016-01-01T12:36:00Z,28.1530,-82.8010,0.037,1111122 
COMPS,ioos:station:USF.COMPS:FHP:1,2016-01-01T12:42:00Z,28.1530,-82.8010,0.034,1111122 
COMPS,ioos:station:USF.COMPS:FHP:1,2016-01-01T12:48:00Z,28.1530,-82.8010,0.018,1111122 
COMPS,ioos:station:USF.COMPS:FHP:1,2016-01-01T12:54:00Z,28.1530,-82.8010,0.0,1114422 
COMPS,ioos:station:USF.COMPS:FHP:1,2016-01-01T13:00:00Z,28.1530,-82.8010,-0.013,1111122 
COMPS,ioos:station:USF.COMPS:FHP:1,2016-01-01T13:06:00Z,28.1530,-82.8010,-0.017,1111122 
COMPS,ioos:station:USF.COMPS:FHP:1,2016-01-01T13:12:00Z,28.1530,-82.8010,-0.023,1111122 
COMPS,ioos:station:USF.COMPS:FHP:1,2016-01-01T13:18:00Z,28.1530,-82.8010,-0.03,1111122 
COMPS,ioos:station:USF.COMPS:FHP:1,2016-01-01T13:24:00Z,28.1530,-82.8010,-0.033,1111122 
COMPS,ioos:station:USF.COMPS:FHP:1,2016-01-01T13:30:00Z,28.1530,-82.8010,-0.05,1111122 
COMPS,ioos:station:USF.COMPS:FHP:1,2016-01-01T13:36:00Z,28.1530,-82.8010,-0.057,1111122 
COMPS,ioos:station:USF.COMPS:FHP:1,2016-01-01T13:42:00Z,28.1530,-82.8010,-0.057,1111122 
COMPS,ioos:station:USF.COMPS:FHP:1,2016-01-01T13:48:00Z,28.1530,-82.8010,-0.067,1111122 
COMPS,ioos:station:USF.COMPS:FHP:1,2016-01-01T13:54:00Z,28.1530,-82.8010,-0.067,1111122 
COMPS,ioos:station:USF.COMPS:FHP:1,2016-01-01T14:00:00Z,28.1530,-82.8010,-0.07,1111122 
COMPS,ioos:station:USF.COMPS:FHP:1,2016-01-01T14:06:00Z,28.1530,-82.8010,-0.068,1111122 
COMPS,ioos:station:USF.COMPS:FHP:1,2016-01-01T14:18:00Z,28.1530,-82.8010,-0.084,1111122 
COMPS,ioos:station:USF.COMPS:FHP:1,2016-01-01T14:24:00Z,28.1530,-82.8010,-0.089,1111122 
COMPS,ioos:station:USF.COMPS:FHP:1,2016-01-01T14:30:00Z,28.1530,-82.8010,-0.095,1111122 
COMPS,ioos:station:USF.COMPS:FHP:1,2016-01-01T14:36:00Z,28.1530,-82.8010,-0.093,1111122 
COMPS,ioos:station:USF.COMPS:FHP:1,2016-01-01T14:42:00Z,28.1530,-82.8010,-0.091,1111122 
COMPS,ioos:station:USF.COMPS:FHP:1,2016-01-01T14:48:00Z,28.1530,-82.8010,-0.097,1111122 
COMPS,ioos:station:USF.COMPS:FHP:1,2016-01-01T14:54:00Z,28.1530,-82.8010,-0.098,1111122 
COMPS,ioos:station:USF.COMPS:FHP:1,2016-01-01T15:00:00Z,28.1530,-82.8010,-0.102,1111122 
COMPS,ioos:station:USF.COMPS:FHP:1,2016-01-01T15:06:00Z,28.1530,-82.8010,-0.109,1111122 
COMPS,ioos:station:USF.COMPS:FHP:1,2016-01-01T15:12:00Z,28.1530,-82.8010,-0.105,1111122 
COMPS,ioos:station:USF.COMPS:FHP:1,2016-01-01T15:18:00Z,28.1530,-82.8010,-0.106,1111122 
COMPS,ioos:station:USF.COMPS:FHP:1,2016-01-01T15:24:00Z,28.1530,-82.8010,-0.104,1111122 
COMPS,ioos:station:USF.COMPS:FHP:1,2016-01-01T15:30:00Z,28.1530,-82.8010,-0.098,1111122 
COMPS,ioos:station:USF.COMPS:FHP:1,2016-01-01T15:36:00Z,28.1530,-82.8010,-0.096,1111122 
COMPS,ioos:station:USF.COMPS:FHP:1,2016-01-01T15:42:00Z,28.1530,-82.8010,-0.088,1111122 
COMPS,ioos:station:USF.COMPS:FHP:1,2016-01-01T15:48:00Z,28.1530,-82.8010,-0.083,1111122 
COMPS,ioos:station:USF.COMPS:FHP:1,2016-01-01T15:54:00Z,28.1530,-82.8010,-0.074,1111122 
COMPS,ioos:station:USF.COMPS:FHP:1,2016-01-01T16:00:00Z,28.1530,-82.8010,-0.066,1111122 
COMPS,ioos:station:USF.COMPS:FHP:1,2016-01-01T16:06:00Z,28.1530,-82.8010,-0.06,1111122 
COMPS,ioos:station:USF.COMPS:FHP:1,2016-01-01T16:12:00Z,28.1530,-82.8010,-0.051,1111122 
COMPS,ioos:station:USF.COMPS:FHP:1,2016-01-01T16:18:00Z,28.1530,-82.8010,-0.037,1111122 
COMPS,ioos:station:USF.COMPS:FHP:1,2016-01-01T16:24:00Z,28.1530,-82.8010,-0.034,1111122 
COMPS,ioos:station:USF.COMPS:FHP:1,2016-01-01T16:30:00Z,28.1530,-82.8010,-0.025,1111122 
COMPS,ioos:station:USF.COMPS:FHP:1,2016-01-01T16:36:00Z,28.1530,-82.8010,-0.02,1111122 
COMPS,ioos:station:USF.COMPS:FHP:1,2016-01-01T16:42:00Z,28.1530,-82.8010,-0.019,1111122 
COMPS,ioos:station:USF.COMPS:FHP:1,2016-01-01T16:48:00Z,28.1530,-82.8010,-0.007,1111122 
COMPS,ioos:station:USF.COMPS:FHP:1,2016-01-01T16:54:00Z,28.1530,-82.8010,-0.005,1111122 
COMPS,ioos:station:USF.COMPS:FHP:1,2016-01-01T17:00:00Z,28.1530,-82.8010,0.008,1111122 
COMPS,ioos:station:USF.COMPS:FHP:1,2016-01-01T17:06:00Z,28.1530,-82.8010,0.014,1111122 
COMPS,ioos:station:USF.COMPS:FHP:1,2016-01-01T17:12:00Z,28.1530,-82.8010,0.025,1111122 
COMPS,ioos:station:USF.COMPS:FHP:1,2016-01-01T17:18:00Z,28.1530,-82.8010,0.032,1111122 
COMPS,ioos:station:USF.COMPS:FHP:1,2016-01-01T17:24:00Z,28.1530,-82.8010,0.041,1111122 
COMPS,ioos:station:USF.COMPS:FHP:1,2016-01-01T17:30:00Z,28.1530,-82.8010,0.052,1111122 
COMPS,ioos:station:USF.COMPS:FHP:1,2016-01-01T17:36:00Z,28.1530,-82.8010,0.063,1111122 
COMPS,ioos:station:USF.COMPS:FHP:1,2016-01-01T17:42:00Z,28.1530,-82.8010,0.073,1111122 
COMPS,ioos:station:USF.COMPS:FHP:1,2016-01-01T17:48:00Z,28.1530,-82.8010,0.078,1111122 
COMPS,ioos:station:USF.COMPS:FHP:1,2016-01-01T17:54:00Z,28.1530,-82.8010,0.094,1111122 
COMPS,ioos:station:USF.COMPS:FHP:1,2016-01-01T18:00:00Z,28.1530,-82.8010,0.102,1111122 
COMPS,ioos:station:USF.COMPS:FHP:1,2016-01-01T18:06:00Z,28.1530,-82.8010,0.109,1111122 
COMPS,ioos:station:USF.COMPS:FHP:1,2016-01-01T18:12:00Z,28.1530,-82.8010,0.118,1111122 
COMPS,ioos:station:USF.COMPS:FHP:1,2016-01-01T18:18:00Z,28.1530,-82.8010,0.126,1111122 
COMPS,ioos:station:USF.COMPS:FHP:1,2016-01-01T18:24:00Z,28.1530,-82.8010,0.143,1111122 
COMPS,ioos:station:USF.COMPS:FHP:1,2016-01-01T18:30:00Z,28.1530,-82.8010,0.155,1111122 
COMPS,ioos:station:USF.COMPS:FHP:1,2016-01-01T18:36:00Z,28.1530,-82.8010,0.171,1111122 
COMPS,ioos:station:USF.COMPS:FHP:1,2016-01-01T18:42:00Z,28.1530,-82.8010,0.184,1111122 
COMPS,ioos:station:USF.COMPS:FHP:1,2016-01-01T18:48:00Z,28.1530,-82.8010,0.197,1111122 
COMPS,ioos:station:USF.COMPS:FHP:1,2016-01-01T18:54:00Z,28.1530,-82.8010,0.216,1111122 
COMPS,ioos:station:USF.COMPS:FHP:1,2016-01-01T19:00:00Z,28.1530,-82.8010,0.226,1111122 
COMPS,ioos:station:USF.COMPS:FHP:1,2016-01-01T19:06:00Z,28.1530,-82.8010,0.241,1111122 
COMPS,ioos:station:USF.COMPS:FHP:1,2016-01-01T19:12:00Z,28.1530,-82.8010,0.247,1111122 
COMPS,ioos:station:USF.COMPS:FHP:1,2016-01-01T19:18:00Z,28.1530,-82.8010,0.26,1111122 
COMPS,ioos:station:USF.COMPS:FHP:1,2016-01-01T19:24:00Z,28.1530,-82.8010,0.275,1111122 
COMPS,ioos:station:USF.COMPS:FHP:1,2016-01-01T19:30:00Z,28.1530,-82.8010,0.287,1111122 
COMPS,ioos:station:USF.COMPS:FHP:1,2016-01-01T19:36:00Z,28.1530,-82.8010,0.298,1111122 
COMPS,ioos:station:USF.COMPS:FHP:1,2016-01-01T19:42:00Z,28.1530,-82.8010,0.311,1111122 
COMPS,ioos:station:USF.COMPS:FHP:1,2016-01-01T19:48:00Z,28.1530,-82.8010,0.319,1111122 
COMPS,ioos:station:USF.COMPS:FHP:1,2016-01-01T19:54:00Z,28.1530,-82.8010,0.334,1111122 
COMPS,ioos:station:USF.COMPS:FHP:1,2016-01-01T20:00:00Z,28.1530,-82.8010,0.34,1111122 
COMPS,ioos:station:USF.COMPS:FHP:1,2016-01-01T20:06:00Z,28.1530,-82.8010,0.348,1111122 
COMPS,ioos:station:USF.COMPS:FHP:1,2016-01-01T20:12:00Z,28.1530,-82.8010,0.35,1111122 
COMPS,ioos:station:USF.COMPS:FHP:1,2016-01-01T20:18:00Z,28.1530,-82.8010,0.349,1111122 
COMPS,ioos:station:USF.COMPS:FHP:1,2016-01-01T20:24:00Z,28.1530,-82.8010,0.359,1111122 
COMPS,ioos:station:USF.COMPS:FHP:1,2016-01-01T20:30:00Z,28.1530,-82.8010,0.367,1111122 
COMPS,ioos:station:USF.COMPS:FHP:1,2016-01-01T20:36:00Z,28.1530,-82.8010,0.377,1111122 
COMPS,ioos:station:USF.COMPS:FHP:1,2016-01-01T20:42:00Z,28.1530,-82.8010,0.385,1111122 
COMPS,ioos:station:USF.COMPS:FHP:1,2016-01-01T20:48:00Z,28.1530,-82.8010,0.39,1111122 
COMPS,ioos:station:USF.COMPS:FHP:1,2016-01-01T20:54:00Z,28.1530,-82.8010,0.394,1111122 
COMPS,ioos:station:USF.COMPS:FHP:1,2016-01-01T21:00:00Z,28.1530,-82.8010,0.4,1111122 
COMPS,ioos:station:USF.COMPS:FHP:1,2016-01-01T21:06:00Z,28.1530,-82.8010,0.416,1111122 
COMPS,ioos:station:USF.COMPS:FHP:1,2016-01-01T21:12:00Z,28.1530,-82.8010,0.42,1111122 
COMPS,ioos:station:USF.COMPS:FHP:1,2016-01-01T21:18:00Z,28.1530,-82.8010,0.44,1111122 
COMPS,ioos:station:USF.COMPS:FHP:1,2016-01-01T21:24:00Z,28.1530,-82.8010,0.445,1111122 
COMPS,ioos:station:USF.COMPS:FHP:1,2016-01-01T21:30:00Z,28.1530,-82.8010,0.455,1111122 
COMPS,ioos:station:USF.COMPS:FHP:1,2016-01-01T21:36:00Z,28.1530,-82.8010,0.462,1111122 
COMPS,ioos:station:USF.COMPS:FHP:1,2016-01-01T21:42:00Z,28.1530,-82.8010,0.463,1111122 
COMPS,ioos:station:USF.COMPS:FHP:1,2016-01-01T21:48:00Z,28.1530,-82.8010,0.47,1111122 
COMPS,ioos:station:USF.COMPS:FHP:1,2016-01-01T21:54:00Z,28.1530,-82.8010,0.461,1111122 
COMPS,ioos:station:USF.COMPS:FHP:1,2016-01-01T22:00:00Z,28.1530,-82.8010,0.454,1111122 
COMPS,ioos:station:USF.COMPS:FHP:1,2016-01-01T22:06:00Z,28.1530,-82.8010,0.459,1111122 
COMPS,ioos:station:USF.COMPS:FHP:1,2016-01-01T22:12:00Z,28.1530,-82.8010,0.45,1111122 
COMPS,ioos:station:USF.COMPS:FHP:1,2016-01-01T22:18:00Z,28.1530,-82.8010,0.452,1111122 
COMPS,ioos:station:USF.COMPS:FHP:1,2016-01-01T22:24:00Z,28.1530,-82.8010,0.442,1111122 
COMPS,ioos:station:USF.COMPS:FHP:1,2016-01-01T22:30:00Z,28.1530,-82.8010,0.447,1111122 
COMPS,ioos:station:USF.COMPS:FHP:1,2016-01-01T22:36:00Z,28.1530,-82.8010,0.438,1111122 
COMPS,ioos:station:USF.COMPS:FHP:1,2016-01-01T22:42:00Z,28.1530,-82.8010,0.431,1111122 
COMPS,ioos:station:USF.COMPS:FHP:1,2016-01-01T22:48:00Z,28.1530,-82.8010,0.423,1111122 
COMPS,ioos:station:USF.COMPS:FHP:1,2016-01-01T22:54:00Z,28.1530,-82.8010,0.42,1111122 
COMPS,ioos:station:USF.COMPS:FHP:1,2016-01-01T23:00:00Z,28.1530,-82.8010,0.412,1111122 
COMPS,ioos:station:USF.COMPS:FHP:1,2016-01-01T23:06:00Z,28.1530,-82.8010,0.406,1111122 
COMPS,ioos:station:USF.COMPS:FHP:1,2016-01-01T23:12:00Z,28.1530,-82.8010,0.393,1111122 
COMPS,ioos:station:USF.COMPS:FHP:1,2016-01-01T23:18:00Z,28.1530,-82.8010,0.379,1111122 
COMPS,ioos:station:USF.COMPS:FHP:1,2016-01-01T23:24:00Z,28.1530,-82.8010,0.365,1111122 
COMPS,ioos:station:USF.COMPS:FHP:1,2016-01-01T23:30:00Z,28.1530,-82.8010,0.37,1111122 
COMPS,ioos:station:USF.COMPS:FHP:1,2016-01-01T23:36:00Z,28.1530,-82.8010,0.353,1111122 
COMPS,ioos:station:USF.COMPS:FHP:1,2016-01-01T23:42:00Z,28.1530,-82.8010,0.342,1111122 
COMPS,ioos:station:USF.COMPS:FHP:1,2016-01-01T23:48:00Z,28.1530,-82.8010,0.335,1111122 
COMPS,ioos:station:USF.COMPS:FHP:1,2016-01-01T23:54:00Z,28.1530,-82.8010,0.322,1111122 
COMPS,ioos:station:USF.COMPS:FHP:1,2016-01-02T00:00:00Z,28.1530,-82.8010,0.295,1111122 
COMPS,ioos:station:USF.COMPS:FHP:1,2016-01-02T00:06:00Z,28.1530,-82.8010,0.277,1111122 
COMPS,ioos:station:USF.COMPS:FHP:1,2016-01-02T00:12:00Z,28.1530,-82.8010,0.251,1111122 
COMPS,ioos:station:USF.COMPS:FHP:1,2016-01-02T00:18:00Z,28.1530,-82.8010,0.247,1111122 
COMPS,ioos:station:USF.COMPS:FHP:1,2016-01-02T00:30:00Z,28.1530,-82.8010,0.234,1111122 
COMPS,ioos:station:USF.COMPS:FHP:1,2016-01-02T00:36:00Z,28.1530,-82.8010,0.215,1111122 
COMPS,ioos:station:USF.COMPS:FHP:1,2016-01-02T00:42:00Z,28.1530,-82.8010,0.194,1111122 
COMPS,ioos:station:USF.COMPS:FHP:1,2016-01-02T00:48:00Z,28.1530,-82.8010,0.174,1111122 
COMPS,ioos:station:USF.COMPS:FHP:1,2016-01-02T00:54:00Z,28.1530,-82.8010,0.167,1111122 
COMPS,ioos:station:USF.COMPS:FHP:1,2016-01-02T01:00:00Z,28.1530,-82.8010,0.162,1111122 
COMPS,ioos:station:USF.COMPS:FHP:1,2016-01-02T01:06:00Z,28.1530,-82.8010,0.139,1111122 
COMPS,ioos:station:USF.COMPS:FHP:1,2016-01-02T01:12:00Z,28.1530,-82.8010,0.143,1111122 
COMPS,ioos:station:USF.COMPS:FHP:1,2016-01-02T01:18:00Z,28.1530,-82.8010,0.133,1111122 
COMPS,ioos:station:USF.COMPS:FHP:1,2016-01-02T01:30:00Z,28.1530,-82.8010,0.116,1111122 
COMPS,ioos:station:USF.COMPS:FHP:1,2016-01-02T01:42:00Z,28.1530,-82.8010,0.101,1111122 
COMPS,ioos:station:USF.COMPS:FHP:1,2016-01-02T01:48:00Z,28.1530,-82.8010,0.108,1111122 
COMPS,ioos:station:USF.COMPS:FHP:1,2016-01-02T01:54:00Z,28.1530,-82.8010,0.102,1111122 
COMPS,ioos:station:USF.COMPS:FHP:1,2016-01-02T02:00:00Z,28.1530,-82.8010,0.109,1111122 
COMPS,ioos:station:USF.COMPS:FHP:1,2016-01-02T02:06:00Z,28.1530,-82.8010,0.091,1111122 
COMPS,ioos:station:USF.COMPS:FHP:1,2016-01-02T02:12:00Z,28.1530,-82.8010,0.098,1111122 
COMPS,ioos:station:USF.COMPS:FHP:1,2016-01-02T02:18:00Z,28.1530,-82.8010,0.078,1111122 
COMPS,ioos:station:USF.COMPS:FHP:1,2016-01-02T02:30:00Z,28.1530,-82.8010,0.067,1111122 
COMPS,ioos:station:USF.COMPS:FHP:1,2016-01-02T02:36:00Z,28.1530,-82.8010,0.072,1111122 
COMPS,ioos:station:USF.COMPS:FHP:1,2016-01-02T02:42:00Z,28.1530,-82.8010,0.078,1111122 
COMPS,ioos:station:USF.COMPS:FHP:1,2016-01-02T02:48:00Z,28.1530,-82.8010,0.095,1111122 
COMPS,ioos:station:USF.COMPS:FHP:1,2016-01-02T02:54:00Z,28.1530,-82.8010,0.099,1111122 
COMPS,ioos:station:USF.COMPS:FHP:1,2016-01-02T03:00:00Z,28.1530,-82.8010,0.112,1111122 
COMPS,ioos:station:USF.COMPS:FHP:1,2016-01-02T03:06:00Z,28.1530,-82.8010,0.12,1111122 
COMPS,ioos:station:USF.COMPS:FHP:1,2016-01-02T03:12:00Z,28.1530,-82.8010,0.132,1111122 
COMPS,ioos:station:USF.COMPS:FHP:1,2016-01-02T03:18:00Z,28.1530,-82.8010,0.133,1111122 
COMPS,ioos:station:USF.COMPS:FHP:1,2016-01-02T03:24:00Z,28.1530,-82.8010,0.135,1111122 
COMPS,ioos:station:USF.COMPS:FHP:1,2016-01-02T03:30:00Z,28.1530,-82.8010,0.123,1111122 
COMPS,ioos:station:USF.COMPS:FHP:1,2016-01-02T03:36:00Z,28.1530,-82.8010,0.105,1111122 
COMPS,ioos:station:USF.COMPS:FHP:1,2016-01-02T03:42:00Z,28.1530,-82.8010,0.101,1111122 
COMPS,ioos:station:USF.COMPS:FHP:1,2016-01-02T03:48:00Z,28.1530,-82.8010,0.09,1111122 
COMPS,ioos:station:USF.COMPS:FHP:1,2016-01-02T03:54:00Z,28.1530,-82.8010,0.078,1111122 
COMPS,ioos:station:USF.COMPS:FHP:1,2016-01-02T04:00:00Z,28.1530,-82.8010,0.068,1111122 
COMPS,ioos:station:USF.COMPS:FHP:1,2016-01-02T04:06:00Z,28.1530,-82.8010,0.06,1111122 
COMPS,ioos:station:USF.COMPS:FHP:1,2016-01-02T04:12:00Z,28.1530,-82.8010,0.041,1111122 
COMPS,ioos:station:USF.COMPS:FHP:1,2016-01-02T04:18:00Z,28.1530,-82.8010,0.037,1111122 
COMPS,ioos:station:USF.COMPS:FHP:1,2016-01-02T04:24:00Z,28.1530,-82.8010,0.02,1111122 
COMPS,ioos:station:USF.COMPS:FHP:1,2016-01-02T04:30:00Z,28.1530,-82.8010,0.002,1111122 
COMPS,ioos:station:USF.COMPS:FHP:1,2016-01-02T04:36:00Z,28.1530,-82.8010,-0.002,1111122 
COMPS,ioos:station:USF.COMPS:FHP:1,2016-01-02T04:42:00Z,28.1530,-82.8010,-0.007,1111122 
COMPS,ioos:station:USF.COMPS:FHP:1,2016-01-02T04:48:00Z,28.1530,-82.8010,-0.014,1111122 
COMPS,ioos:station:USF.COMPS:FHP:1,2016-01-02T04:54:00Z,28.1530,-82.8010,-0.012,1111122 
COMPS,ioos:station:USF.COMPS:FHP:1,2016-01-02T05:00:00Z,28.1530,-82.8010,-0.008,1111122 
COMPS,ioos:station:USF.COMPS:FHP:1,2016-01-02T05:06:00Z,28.1530,-82.8010,-0.012,1111122 